K5GHS-1 Weather Reports


Display with metric or nautical units.
time (UTC)temp
F
wind
direction
speed
MPH
gust
MPH
rain 1hr
in
rain 24hr
in
rain mn
in
humidity
%
barometer
mb
20260507234352 72 129 1.0 1.0 0.00 0.00 0.00 55 1012.8
20260507233848 72 108 0.0 1.0 0.00 0.00 0.00 54 1012.8
20260507233345 72 92 1.0 2.0 0.00 0.00 0.00 53 1013.0
20260507232844 72 88 0.0 1.0 0.00 0.00 0.00 53 1013.1
20260507232340 72 90 1.0 2.0 0.00 0.00 0.00 54 1013.3
20260507231837 72 89 0.0 1.0 0.00 0.00 0.00 54 1013.1
20260507231328 72 105 1.0 2.0 0.00 0.00 0.00 52 1013.3
20260507230824 72 86 1.0 2.0 0.00 0.00 0.00 52 1013.2
20260507230321 72 92 0.0 1.0 0.00 0.00 0.00 53 1013.1
20260507225822 72 86 0.0 2.0 0.00 0.00 0.00 52 1012.8
20260507225318 72 86 1.0 2.0 0.00 0.00 0.00 52 1013.1
20260507224814 72 92 2.0 3.0 0.00 0.00 0.00 51 1013.3
20260507224311 73 96 0.0 2.0 0.00 0.00 0.00 52 1013.4
20260507223807 73 82 1.0 3.0 0.00 0.00 0.00 52 1013.5
20260507223303 73 98 1.0 2.0 0.00 0.00 0.00 50 1013.3
20260507222800 74 91 1.0 3.0 0.00 0.00 0.00 50 1013.4
20260507222256 74 80 0.0 2.0 0.00 0.00 0.00 49 1013.3
20260507221754 75 89 0.0 2.0 0.00 0.00 0.00 48 1013.4
20260507221250 75 88 0.0 0.0 0.00 0.00 0.00 45 1013.2
20260507220746 76 70 0.0 0.0 0.00 0.00 0.00 45 1013.3
20260507220245 76 80 0.0 0.0 0.00 0.00 0.00 45 1013.3
20260507215740 76 74 0.0 0.0 0.00 0.00 0.00 45 1013.4
20260507215238 76 74 0.0 0.0 0.00 0.00 0.00 43 1013.7
20260507214735 76 75 0.0 0.0 0.00 0.00 0.00 45 1013.4
20260507214233 76 74 0.0 1.0 0.00 0.00 0.00 46 1013.6
20260507213728 76 83 0.0 0.0 0.00 0.00 0.00 45 1013.3
20260507213225 76 93 0.0 2.0 0.00 0.00 0.00 44 1013.6
20260507212721 77 92 0.0 1.0 0.00 0.00 0.00 42 1013.5
20260507212218 77 82 0.0 1.0 0.00 0.00 0.00 42 1013.5
20260507211715 77 81 0.0 1.0 0.00 0.00 0.00 43 1013.8
20260507211210 78 99 0.0 2.0 0.00 0.00 0.00 41 1013.8
20260507210708 78 64 0.0 1.0 0.00 0.00 0.00 43 1013.9
20260507210205 77 87 0.0 1.0 0.00 0.00 0.00 43 1013.8
20260507205701 78 81 0.0 0.0 0.00 0.00 0.00 40 1013.8
20260507205158 77 74 0.0 0.0 0.00 0.00 0.00 42 1013.7
20260507204654 77 110 0.0 1.0 0.00 0.00 0.00 42 1013.7
20260507204152 78 99 2.0 3.0 0.00 0.00 0.00 40 1013.8
20260507203650 79 78 0.0 0.0 0.00 0.00 0.00 40 1013.7
20260507203147 80 93 1.0 1.0 0.00 0.00 0.00 38 1014.2
20260507202642 79 77 1.0 2.0 0.00 0.00 0.00 40 1014.2
20260507202138 77 69 0.0 1.0 0.00 0.00 0.00 43 1014.3
20260507201634 78 113 2.0 3.0 0.00 0.00 0.00 40 1014.3
20260507201131 78 64 0.0 1.0 0.00 0.00 0.00 41 1014.2
20260507200627 78 67 0.0 1.0 0.00 0.00 0.00 43 1014.3
20260507200123 78 113 2.0 3.0 0.00 0.00 0.00 40 1014.4
20260507195620 78 71 1.0 2.0 0.00 0.00 0.00 41 1014.6
20260507195117 78 84 0.0 1.0 0.00 0.00 0.00 41 1014.6
20260507194614 78 93 0.0 1.0 0.00 0.00 0.00 42 1014.7
20260507194109 77 73 0.0 1.0 0.00 0.00 0.00 43 1014.8
20260507193607 76 114 1.0 2.0 0.00 0.00 0.00 44 1014.6
20260507193104 76 88 2.0 5.0 0.00 0.00 0.00 43 1014.7
20260507192600 78 79 0.0 1.0 0.00 0.00 0.00 42 1014.9
20260507192057 77 81 0.0 3.0 0.00 0.00 0.00 43 1014.7
20260507191552 77 96 1.0 1.0 0.00 0.00 0.00 41 1015.1
20260507191049 76 71 0.0 2.0 0.00 0.00 0.00 44 1015.3
20260507190547 76 73 0.0 3.0 0.00 0.00 0.00 44 1015.1
20260507190046 75 71 1.0 1.0 0.00 0.00 0.00 44 1015.2
20260507185543 75 112 3.0 5.0 0.00 0.00 0.00 44 1015.1
20260507185039 75 56 0.0 1.0 0.00 0.00 0.00 45 1015.3
20260507184538 75 76 0.0 1.0 0.00 0.00 0.00 47 1015.5
20260507184036 75 71 1.0 3.0 0.00 0.00 0.00 44 1015.4
20260507183531 75 74 0.0 1.0 0.00 0.00 0.00 45 1015.7
20260507183028 75 45 1.0 5.0 0.00 0.00 0.00 45 1015.7
20260507182525 74 94 0.0 1.0 0.00 0.00 0.00 46 1015.5
20260507182021 74 92 1.0 2.0 0.00 0.00 0.00 46 1015.7
20260507181518 73 75 1.0 3.0 0.00 0.00 0.00 45 1016.0
20260507181014 74 119 2.0 3.0 0.00 0.00 0.00 44 1016.0
20260507180510 74 71 0.0 2.0 0.00 0.00 0.00 46 1015.7
20260507180007 74 70 0.0 1.0 0.00 0.00 0.00 49 1016.1
20260507175504 73 72 0.0 2.0 0.00 0.00 0.00 46 1016.1
20260507175001 73 70 0.0 3.0 0.00 0.00 0.00 46 1016.0
20260507174458 74 65 1.0 1.0 0.00 0.00 0.00 45 1016.3
20260507173956 73 62 0.0 1.0 0.00 0.00 0.00 49 1016.3
20260507173452 72 73 0.0 0.0 0.00 0.00 0.00 49 1016.5
20260507172949 73 3 0.0 1.0 0.00 0.00 0.00 49 1016.8
20260507172446 73 72 0.0 2.0 0.00 0.00 0.00 51 1017.0
20260507171943 72 64 0.0 1.0 0.00 0.00 0.00 52 1017.0
20260507171438 72 86 3.0 3.0 0.00 0.00 0.00 48 1017.3
20260507170936 72 74 0.0 1.0 0.00 0.00 0.00 49 1017.4
20260507170432 71 106 0.0 1.0 0.00 0.00 0.00 51 1017.4
20260507165929 71 127 0.0 3.0 0.00 0.00 0.00 51 1017.5
20260507165425 71 79 0.0 3.0 0.00 0.00 0.00 51 1017.5
20260507164921 71 65 1.0 2.0 0.00 0.00 0.00 51 1017.3
20260507164418 71 82 0.0 1.0 0.00 0.00 0.00 51 1017.7
20260507163915 71 68 0.0 1.0 0.00 0.00 0.00 52 1017.5
20260507163412 71 69 0.0 1.0 0.00 0.00 0.00 51 1017.4
20260507162909 71 57 1.0 5.0 0.00 0.00 0.00 52 1017.5
20260507162404 71 68 0.0 1.0 0.00 0.00 0.00 52 1017.6
20260507161902 70 74 0.0 3.0 0.00 0.00 0.00 54 1017.6
20260507161358 70 71 0.0 1.0 0.00 0.00 0.00 54 1017.6
20260507160855 69 92 1.0 1.0 0.00 0.00 0.00 54 1017.6
20260507160350 69 63 0.0 1.0 0.00 0.00 0.00 56 1017.8
20260507155847 69 77 0.0 1.0 0.00 0.00 0.00 58 1017.8
20260507155342 69 69 0.0 1.0 0.00 0.00 0.00 57 1017.7
20260507154839 69 75 0.0 1.0 0.00 0.00 0.00 59 1017.9
20260507154337 68 75 0.0 1.0 0.00 0.00 0.00 59 1017.9
20260507153834 68 64 0.0 1.0 0.00 0.00 0.00 59 1018.1
20260507153330 68 65 1.0 2.0 0.00 0.00 0.00 59 1017.9
20260507152827 68 71 0.0 0.0 0.00 0.00 0.00 60 1017.9
20260507152323 67 68 0.0 1.0 0.00 0.00 0.00 61 1018.3
20260507151819 68 69 0.0 0.0 0.00 0.00 0.00 61 1018.1
20260507151316 66 87 1.0 2.0 0.00 0.00 0.00 61 1018.1
20260507150813 66 75 0.0 1.0 0.00 0.00 0.00 62 1018.2
20260507150309 66 75 0.0 2.0 0.00 0.00 0.00 63 1018.2
20260507145805 65 90 0.0 1.0 0.00 0.00 0.00 62 1018.2
20260507145306 65 83 1.0 1.0 0.00 0.00 0.00 64 1018.2
20260507144759 65 72 0.0 1.0 0.00 0.00 0.00 64 1018.3
20260507144256 66 70 0.0 2.0 0.00 0.00 0.00 63 1018.4
20260507143753 66 69 2.0 2.0 0.00 0.00 0.00 64 1018.3
20260507143250 66 70 0.0 1.0 0.00 0.00 0.00 66 1018.3
20260507142746 65 70 0.0 0.0 0.00 0.00 0.00 70 1018.5
20260507142243 64 70 0.0 2.0 0.00 0.00 0.00 69 1018.4
20260507141739 63 71 0.0 1.0 0.00 0.00 0.00 71 1018.5
20260507141236 63 74 0.0 1.0 0.00 0.00 0.00 72 1018.8
20260507140732 62 73 0.0 0.0 0.00 0.00 0.00 74 1018.9
20260507140230 61 58 0.0 1.0 0.00 0.00 0.00 76 1018.7
20260507135727 60 72 0.0 1.0 0.00 0.00 0.00 79 1018.8
20260507135224 59 68 0.0 0.0 0.00 0.00 0.00 83 1018.8
20260507134720 58 71 0.0 0.0 0.00 0.00 0.00 86 1018.6
20260507134216 57 72 0.0 0.0 0.00 0.00 0.00 88 1018.9
20260507133712 57 70 0.0 1.0 0.00 0.00 0.00 91 1018.7
20260507133210 57 74 0.0 1.0 0.00 0.00 0.00 93 1018.7
20260507132707 56 73 0.0 0.0 0.00 0.00 0.00 94 1018.8
20260507132203 55 75 0.0 0.0 0.00 0.00 0.00 94 1018.9
20260507131700 54 71 0.0 0.0 0.00 0.00 0.00 95 1018.7
20260507131158 54 74 0.0 0.0 0.00 0.00 0.00 95 1018.7
20260507130654 54 74 0.0 0.0 0.00 0.00 0.00 95 1018.7
20260507130152 53 75 0.0 0.0 0.00 0.00 0.00 95 1018.7
20260507125651 53 72 0.0 1.0 0.00 0.00 0.00 95 1018.7
20260507125148 53 74 0.0 0.0 0.00 0.00 0.00 95 1018.6
20260507124643 52 73 0.0 0.0 0.00 0.00 0.00 96 1018.4
20260507124142 52 80 0.0 0.0 0.00 0.00 0.00 96 1018.3
20260507123640 52 76 0.0 0.0 0.00 0.00 0.00 96 1018.4
20260507123137 51 80 0.0 0.0 0.00 0.00 0.00 96 1018.2
20260507122632 51 78 0.0 0.0 0.00 0.00 0.00 96 1018.5
20260507122128 51 78 0.0 0.0 0.00 0.00 0.00 95 1018.5
20260507121624 50 78 0.0 0.0 0.00 0.00 0.00 95 1018.4
20260507121120 50 78 0.0 0.0 0.00 0.00 0.00 95 1018.3
20260507120616 50 78 0.0 0.0 0.00 0.00 0.00 95 1018.2
20260507120113 50 78 0.0 0.0 0.00 0.00 0.00 95 1018.1
20260507115610 50 78 0.0 0.0 0.00 0.00 0.00 95 1017.8
20260507115105 50 78 0.0 0.0 0.00 0.00 0.00 95 1017.7
20260507114601 50 78 0.0 0.0 0.00 0.00 0.00 95 1018.1
20260507114058 50 78 0.0 0.0 0.00 0.00 0.00 95 1017.6
20260507113555 50 78 0.0 0.0 0.00 0.00 0.00 95 1017.6
20260507113053 50 78 0.0 0.0 0.00 0.00 0.00 95 1017.6
20260507112551 50 78 0.0 0.0 0.00 0.00 0.00 95 1017.4
20260507112047 50 78 0.0 0.0 0.00 0.00 0.00 95 1017.3
20260507111544 50 78 0.0 0.0 0.00 0.00 0.00 95 1017.1
20260507111041 50 79 0.0 0.0 0.00 0.00 0.00 95 1017.1
20260507110537 50 77 0.0 0.0 0.00 0.00 0.00 94 1017.1
20260507110034 50 77 0.0 0.0 0.00 0.00 0.00 94 1017.2
20260507105531 50 77 0.0 0.0 0.00 0.00 0.00 94 1017.2
20260507105027 50 77 0.0 0.0 0.00 0.00 0.00 94 1017.2
20260507104524 50 77 0.0 0.0 0.00 0.00 0.00 94 1017.0
20260507104021 50 77 0.0 0.0 0.00 0.00 0.00 94 1016.8
20260507103517 50 77 0.0 0.0 0.00 0.00 0.00 94 1016.8
20260507103014 50 77 0.0 0.0 0.00 0.00 0.00 94 1016.9
20260507102510 50 77 0.0 0.0 0.00 0.00 0.00 94 1016.5
20260507102007 50 77 0.0 0.0 0.00 0.00 0.00 94 1016.6
20260507101502 50 77 0.0 0.0 0.00 0.00 0.00 94 1016.4
20260507100959 50 77 0.0 0.0 0.00 0.00 0.00 94 1016.5
20260507100456 50 77 0.0 0.0 0.00 0.00 0.00 94 1016.4
20260507095954 50 77 0.0 0.0 0.00 0.00 0.00 94 1016.2
20260507095452 50 77 0.0 0.0 0.00 0.00 0.00 93 1016.1
20260507094948 51 77 0.0 0.0 0.00 0.00 0.00 93 1016.1
20260507094444 51 77 0.0 0.0 0.00 0.00 0.00 93 1016.3
20260507093941 51 77 0.0 0.0 0.00 0.00 0.00 93 1016.0
20260507093439 51 77 0.0 0.0 0.00 0.00 0.00 93 1016.1
20260507092937 51 77 0.0 0.0 0.00 0.00 0.00 93 1016.1
20260507092433 51 77 0.0 0.0 0.00 0.00 0.00 93 1016.1
20260507091930 51 77 0.0 0.0 0.00 0.00 0.00 93 1015.9
20260507091427 51 77 0.0 0.0 0.00 0.00 0.00 93 1016.1
20260507090922 51 77 0.0 0.0 0.00 0.00 0.00 93 1016.2
20260507090419 52 77 0.0 0.0 0.00 0.00 0.00 92 1016.1
20260507085915 52 77 0.0 0.0 0.00 0.00 0.00 92 1016.0
20260507085412 52 77 0.0 0.0 0.00 0.00 0.00 92 1016.0
20260507084910 52 77 0.0 0.0 0.00 0.00 0.00 92 1016.0
20260507084406 52 77 0.0 0.0 0.00 0.00 0.00 92 1016.0
20260507083904 52 77 0.0 0.0 0.00 0.00 0.00 92 1016.0
20260507083400 53 77 0.0 0.0 0.00 0.00 0.00 92 1016.1
20260507082856 53 77 0.0 0.0 0.00 0.00 0.00 92 1015.7
20260507082352 53 79 0.0 0.0 0.00 0.00 0.00 92 1016.0
20260507081849 53 79 0.0 0.0 0.00 0.00 0.00 91 1015.9
20260507081345 53 75 0.0 0.0 0.00 0.00 0.00 91 1015.9
20260507080842 53 75 0.0 0.0 0.00 0.00 0.00 91 1015.8
20260507080338 53 78 0.0 0.0 0.00 0.00 0.00 91 1015.7
20260507075834 53 67 0.0 0.0 0.00 0.00 0.00 91 1015.7
20260507075330 54 76 0.0 0.0 0.00 0.00 0.00 91 1015.7
20260507074826 54 71 0.0 1.0 0.00 0.00 0.00 91 1015.7
20260507074324 54 71 0.0 0.0 0.00 0.00 0.00 91 1015.6
20260507073821 54 72 0.0 0.0 0.00 0.00 0.00 91 1015.7
20260507073318 54 73 0.0 0.0 0.00 0.00 0.00 91 1015.8
20260507072815 54 74 0.0 1.0 0.00 0.00 0.00 91 1015.6
20260507072312 54 76 0.0 0.0 0.00 0.00 0.00 91 1015.8
20260507071810 54 74 0.0 0.0 0.00 0.00 0.00 90 1015.8
20260507071306 54 72 0.0 0.0 0.00 0.00 0.00 90 1015.8
20260507070803 54 72 0.0 0.0 0.00 0.00 0.00 90 1015.9
20260507070300 54 75 0.0 0.0 0.00 0.00 0.00 90 1016.0
20260507065757 54 76 0.0 0.0 0.00 0.00 0.00 90 1016.1
20260507065253 54 76 0.0 0.0 0.00 0.00 0.00 90 1015.9
20260507064750 55 77 0.0 0.0 0.00 0.00 0.00 90 1015.9
20260507064249 55 70 0.0 0.0 0.00 0.00 0.00 90 1015.8
20260507063747 55 77 0.0 0.0 0.00 0.00 0.00 90 1015.9
20260507063243 55 74 0.0 0.0 0.00 0.00 0.00 90 1015.6
20260507062740 55 75 0.0 1.0 0.00 0.00 0.00 90 1015.7
20260507062237 55 81 0.0 0.0 0.00 0.00 0.00 89 1015.4
20260507061735 55 73 0.0 0.0 0.00 0.00 0.00 89 1015.4
20260507061233 55 77 0.0 1.0 0.00 0.00 0.00 89 1015.4
20260507060731 55 82 0.0 0.0 0.00 0.00 0.00 89 1015.1
20260507060227 55 82 0.0 0.0 0.00 0.00 0.00 89 1015.2
20260507055723 55 86 1.0 2.0 0.00 0.00 0.00 89 1015.2
20260507055219 55 82 0.0 1.0 0.00 0.00 0.00 89 1015.1
20260507054715 55 74 0.0 0.0 0.00 0.00 0.00 88 1015.3
20260507054213 56 81 0.0 0.0 0.00 0.00 0.00 88 1015.6
20260507053710 56 75 0.0 0.0 0.00 0.00 0.00 87 1015.3
20260507053208 56 73 0.0 1.0 0.00 0.00 0.00 87 1015.3
20260507052706 56 87 0.0 0.0 0.00 0.00 0.00 86 1015.5
20260507052202 56 83 0.0 1.0 0.00 0.00 0.00 86 1015.3
20260507051700 56 78 0.0 0.0 0.00 0.00 0.00 85 1015.5
20260507051156 57 75 0.0 0.0 0.00 0.00 0.00 85 1015.5
20260507050653 57 75 0.0 1.0 0.00 0.00 0.00 85 1015.5
20260507050150 57 72 0.0 1.0 0.00 0.00 0.00 84 1015.6
20260507045647 57 74 0.0 1.0 0.00 0.10 0.10 83 1015.4
20260507045143 57 75 0.0 2.0 0.00 0.10 0.10 83 1015.6
20260507044640 57 78 0.0 0.0 0.00 0.10 0.10 82 1015.5
20260507044137 58 73 0.0 1.0 0.00 0.10 0.10 82 1015.5
20260507043633 58 77 0.0 0.0 0.00 0.10 0.10 81 1015.5
20260507043131 58 73 0.0 1.0 0.00 0.10 0.10 81 1015.6
20260507042627 58 77 0.0 0.0 0.00 0.10 0.10 81 1015.9
20260507042122 58 72 0.0 0.0 0.00 0.10 0.10 80 1015.7
20260507041619 58 77 0.0 0.0 0.00 0.10 0.10 80 1015.5
20260507041116 58 89 0.0 1.0 0.00 0.10 0.10 79 1015.7
20260507040613 58 64 1.0 1.0 0.00 0.10 0.10 79 1015.8
20260507040109 58 72 0.0 1.0 0.00 0.10 0.10 79 1015.7
20260507035605 58 65 0.0 1.0 0.00 0.10 0.10 79 1015.6
20260507035101 59 86 0.0 1.0 0.00 0.10 0.10 79 1016.1
20260507034558 59 72 0.0 1.0 0.00 0.10 0.10 78 1016.1
20260507034056 59 75 0.0 1.0 0.00 0.10 0.10 78 1016.2
20260507033554 59 76 1.0 1.0 0.00 0.10 0.10 78 1015.8
20260507033051 59 67 0.0 6.0 0.00 0.10 0.10 78 1015.6
20260507032548 59 69 0.0 3.0 0.00 0.10 0.10 77 1015.8
20260507032044 59 68 0.0 3.0 0.00 0.10 0.10 77 1015.9
20260507031541 59 71 0.0 1.0 0.00 0.10 0.10 78 1015.8
20260507031038 59 66 0.0 1.0 0.00 0.10 0.10 78 1015.6
20260507030534 59 76 0.0 2.0 0.00 0.10 0.10 78 1015.6
20260507030032 59 95 1.0 1.0 0.00 0.10 0.10 77 1015.4
20260507025529 59 68 0.0 1.0 0.00 0.10 0.10 78 1015.5
20260507025027 59 71 0.0 1.0 0.00 0.10 0.10 79 1015.4
20260507024524 59 61 1.0 3.0 0.00 0.10 0.10 80 1015.2
20260507024021 59 68 1.0 2.0 0.00 0.10 0.10 82 1014.9
20260507023516 59 72 0.0 1.0 0.00 0.10 0.10 83 1015.1
20260507023015 59 74 0.0 2.0 0.00 0.10 0.10 82 1014.9
20260507022511 59 75 0.0 0.0 0.00 0.10 0.10 82 1014.7
20260507022006 59 71 1.0 1.0 0.00 0.10 0.10 82 1014.6
20260507021503 59 63 0.0 0.0 0.00 0.10 0.10 83 1014.3
20260507020959 59 53 0.0 0.0 0.00 0.10 0.10 83 1014.6
20260507020456 59 83 0.0 0.0 0.00 0.10 0.10 83 1014.6
20260507015953 59 72 0.0 1.0 0.00 0.10 0.10 83 1014.1
20260507015452 59 74 0.0 0.0 0.00 0.10 0.10 82 1014.1
20260507014949 59 74 1.0 2.0 0.00 0.10 0.10 82 1013.9
20260507014445 59 71 0.0 1.0 0.00 0.10 0.10 83 1013.8
20260507013941 59 61 1.0 3.0 0.00 0.10 0.10 83 1013.8
20260507013438 59 77 0.0 1.0 0.00 0.10 0.10 83 1013.6
20260507012935 59 74 0.0 0.0 0.00 0.10 0.10 83 1013.5
20260507012432 59 69 0.0 0.0 0.00 0.10 0.10 83 1013.6
20260507011928 60 73 0.0 1.0 0.00 0.10 0.10 83 1013.2
20260507011426 60 96 0.0 1.0 0.00 0.10 0.10 82 1013.5
20260507010920 60 82 0.0 2.0 0.00 0.10 0.10 82 1013.4
20260507010415 60 49 0.0 1.0 0.00 0.10 0.10 82 1013.6
20260507005913 60 75 0.0 1.0 0.00 0.10 0.10 82 1013.4
20260507005409 60 30 1.0 2.0 0.00 0.10 0.10 82 1013.3
20260507004906 60 70 0.0 1.0 0.00 0.10 0.10 82 1013.2
20260507004403 60 73 0.0 1.0 0.00 0.10 0.10 82 1012.8
20260507003900 60 72 0.0 0.0 0.00 0.10 0.10 82 1013.1
20260507003355 60 38 1.0 3.0 0.00 0.10 0.10 81 1013.0
20260507002851 60 77 0.0 1.0 0.00 0.10 0.10 81 1013.1
20260507002347 60 68 0.0 2.0 0.00 0.10 0.10 81 1012.5
20260507001844 60 76 0.0 1.0 0.00 0.10 0.10 81 1012.5
20260507001341 60 64 0.0 1.0 0.00 0.10 0.10 81 1012.7
20260507000838 60 76 0.0 1.0 0.00 0.10 0.10 80 1012.7
20260507000335 60 74 1.0 1.0 0.00 0.10 0.10 80 1012.6
20260506235830 60 70 0.0 2.0 0.00 0.10 0.10 80 1012.5
20260506235326 60 71 0.0 2.0 0.00 0.10 0.10 80 1012.5
20260506234823 61 70 0.0 0.0 0.00 0.10 0.10 80 1012.5